7 * 24
多渠道服务支持
爱因斯坦探针(Einstein Probe)是一颗由中国研制的X射线天文卫星,旨在探测宇宙中的暂现天体和变源现象。该卫星搭载高灵敏度X射线望远镜,能够实时监测宇宙中的高能事件,如超新星爆发、黑洞吸积和中子星活动等。其主要任务是研究宇宙中极端物理条件下的天体现象,提升人类对高能天体物理过程的理解。该卫星的发射将为天文学研究提供宝贵的数据支持。
中国
(CN)
| 数据来源 | 国际轨道数据 |
| 星历时间: | 2025-12-13T08:39:46+0800 7小时前 查看轨道信息 |
| 半长轴: | 6943.045km |
| 偏心率: | 0.0010034 |
| 轨道倾角: | 29.000° |
| 近地点辐角 | 63.938° |
| 升交点赤经 | 343.201° |
| 平近点角 | 296.225° |
| 近地点: | 557.943km |
| 远地点: | 571.877km |
| 周期: | 95.959分钟 |
| 每日圈数: | 15.006445 |